Wind_Speed
8 6 7 8 6 6 9 11 11 11 10 10 8 9 12 11 8 3 3 5 10 6 2 4 6 5 4 9 11 10 9 7 5 7 8 6 7 6 9 14 20 21 18 17 17 20 26 30 30 31 33 32 31 29 29 31 32 30 29 29 28 24 22 22 23 23 23 23 21 19 18 18 18 19 19 18 19 20 20 19 18 17 15 14 14 15 15
10 9 9 6 5 3 7 9 10 13 13 14 12 11 12 11 11 8 5 9 12 8 4 4 8 10 10 12 11 10 12 12 8 6 7 8 5 2 5 10 19 21 17 14 13 15 19 24 27 28 28 30 30 30 29 28 30 31 29 28 29 27 24 24 25 23 21 22 22 21 19 19 20 22 22 20 19 20 19 17 17 18 16 14 14 15 15
6 9 10 7 4 5 3 5 10 13 13 14 14 12 11 10 10 11 10 8 7 6 8 7 4 10 14 14 14 12 10 10 8 6 4 6 4 1 1 1 8 15 14 13 14 14 14 18 22 23 22 22 22 24 26 26 27 29 29 28 28 27 25 25 24 22 18 19 23 24 22 20 20 22 23 22 20 21 19 17 17 19 17 17 17 17 17
4 8 8 8 6 2 3 6 10 11 10 10 10 9 9 8 8 9 10 6 3 4 7 11 11 11 11 11 14 13 7 7 7 7 7 5 6 7 6 5 4 3 10 12 11 11 14 17 21 23 21 18 15 17 21 22 23 25 27 27 26 26 26 25 23 23 22 22 26 27 26 24 23 23 24 24 23 22 20 18 19 20 20 20 20 20 20
4 7 8 7 4 3 4 2 4 7 8 7 8 8 9 9 7 5 5 2 2 3 6 10 11 11 10 9 10 11 10 9 11 12 14 15 15 16 14 11 11 8 7 10 6 6 10 13 16 18 18 14 10 11 15 17 18 20 20 19 18 18 20 20 21 23 26 26 28 28 27 27 26 26 27 28 27 25 23 21 19 19 20 22 22 21 22
3 7 8 6 3 4 1 3 1 5 5 8 10 9 9 10 7 4 3 2 2 5 8 9 11 12 11 14 15 11 8 9 13 15 16 16 15 17 18 17 17 16 10 5 5 5 6 8 9 12 14 14 11 10 11 14 16 17 17 15 14 14 16 17 18 21 24 26 27 25 25 26 27 27 29 29 29 29 28 26 23 19 19 20 21 21 22
2 5 6 4 3 1 1 4 4 5 7 11 12 10 10 11 9 7 6 6 6 8 10 11 12 14 15 19 22 20 15 14 18 17 16 14 13 15 17 17 17 19 16 9 6 6 5 4 6 8 11 13 13 11 11 13 14 16 18 19 19 20 21 21 21 22 24 25 25 24 23 25 26 27 28 29 29 30 30 29 27 24 20 19 19 19 21
0 2 3 1 2 3 4 6 8 9 7 7 7 8 10 11 9 8 7 9 10 9 8 9 11 13 17 21 23 23 20 19 22 23 20 17 16 17 19 19 18 19 19 16 13 12 11 8 6 4 3 4 6 6 6 6 6 9 14 18 20 21 22 22 22 23 24 25 25 25 25 26 26 27 28 29 29 29 29 29 28 27 25 23 21 20 19
0 2 1 2 2 3 5 5 7 9 8 5 3 6 6 10 12 11 9 9 12 11 7 6 6 8 12 15 19 21 19 19 22 23 22 20 20 19 19 20 20 19 19 20 19 19 19 17 16 14 11 8 6 6 5 3 3 5 10 14 16 17 17 19 19 19 20 21 22 24 26 26 26 27 29 30 30 30 29 28 28 28 28 27 26 25 23
0 1 0 2 3 1 3 4 9 12 12 11 6 6 2 9 14 16 11 8 10 12 9 6 4 5 6 6 10 17 18 19 20 22 22 22 22 19 17 16 16 16 16 16 16 17 20 20 18 17 17 16 15 14 14 12 11 10 8 8 9 9 10 12 15 15 16 18 19 19 20 21 22 22 24 26 28 28 29 29 29 30 30 30 30 29 28
2 2 1 2 2 2 4 6 10 12 15 13 8 5 2 7 12 16 12 9 9 10 10 9 8 7 5 2 4 11 17 17 18 21 24 24 22 20 19 17 15 14 15 15 14 14 17 18 18 18 20 20 19 18 17 15 15 14 11 8 8 7 5 3 5 8 8 10 12 14 15 16 18 19 20 21 22 23 24 25 26 27 29 30 31 31 30
4 0 1 2 2 1 3 5 8 12 14 11 6 4 1 6 11 14 11 9 8 9 11 10 7 4 4 7 8 11 16 17 17 18 21 22 20 18 17 17 16 16 16 16 16 16 17 17 18 18 18 19 19 18 15 13 14 13 12 10 10 10 9 9 6 4 2 1 3 6 9 10 12 15 17 18 18 18 19 20 21 21 22 24 26 27 28
3 3 3 2 2 1 5 6 11 15 11 5 5 1 3 4 10 11 9 6 7 9 10 9 6 4 9 16 18 16 17 18 18 18 18 18 17 15 14 14 15 15 16 15 15 15 14 14 15 15 14 15 18 18 16 14 13 12 11 9 9 9 10 11 11 10 8 6 3 1 3 4 5 6 8 9 11 12 13 14 15 15 16 18 19 20 22
2 3 3 2 2 3 8 8 15 16 6 1 4 2 2 7 9 8 7 5 7 10 11 11 12 14 17 20 20 16 14 16 17 17 17 17 16 14 13 12 11 12 13 12 11 10 9 8 10 12 12 14 18 19 19 17 15 12 10 9 8 8 9 11 13 13 13 11 8 5 3 2 4 4 3 3 4 5 6 7 8 8 9 11 10 11 14
1 2 4 2 1 5 9 9 10 11 5 4 4 7 11 11 8 7 7 5 7 12 13 13 15 19 19 19 19 17 15 14 14 14 16 17 17 15 13 12 10 9 10 11 12 11 9 7 7 7 7 9 12 14 17 17 15 13 12 10 9 9 9 11 11 12 14 13 11 10 11 9 6 6 6 5 5 5 5 5 5 4 5 6 5 4 6
1 2 2 2 4 7 13 11 6 6 9 10 10 12 13 9 7 7 7 6 7 10 13 14 14 17 17 16 16 16 15 15 14 14 15 16 16 16 15 14 12 11 10 11 13 13 12 10 8 6 4 5 6 9 11 13 13 14 14 13 12 10 9 9 9 9 11 12 10 9 10 11 11 11 11 11 12 12 11 10 9 8 6 6 6 5 5
3 3 3 6 10 12 13 14 14 15 16 15 14 15 14 10 7 6 6 7 7 8 11 13 14 14 14 14 14 14 15 15 15 15 16 16 16 15 15 14 13 12 12 12 12 13 13 11 9 8 6 5 5 6 8 8 9 11 13 14 14 12 9 8 9 9 8 8 7 7 8 8 9 10 11 10 12 13 13 12 11 10 8 7 6 5 4
5 7 8 11 14 14 13 15 17 17 16 14 14 15 14 11 7 6 6 7 7 8 10 11 12 13 13 14 13 13 14 15 15 15 16 15 14 13 12 10 9 9 8 8 8 10 12 12 12 11 8 6 5 5 6 6 5 5 6 9 10 11 10 10 9 8 6 5 5 5 5 6 6 7 9 8 8 10 11 11 12 12 12 11 10 8 9
4 4 4 9 13 12 12 13 14 14 15 14 13 12 12 10 8 8 8 7 6 7 8 9 11 13 14 14 14 14 14 13 13 14 13 12 9 9 8 7 6 5 4 3 5 6 7 9 9 10 10 9 8 7 5 4 4 4 3 4 6 8 9 10 9 8 7 5 4 3 3 2 2 4 5 5 6 7 8 9 8 10 12 12 10 10 11
4 3 4 11 17 14 10 11 12 12 12 12 11 11 11 10 9 8 8 8 6 4 5 6 9 13 15 14 14 14 13 12 13 12 12 11 10 8 7 5 4 4 3 2 3 4 5 5 5 5 6 6 7 7 5 3 3 3 3 4 4 5 7 9 9 7 6 4 3 5 4 1 1 1 1 1 3 5 5 7 7 7 9 10 10 10 9
4 4 5 10 14 12 9 11 11 10 10 9 9 9 9 10 9 7 7 8 6 4 5 6 7 10 12 14 14 13 12 12 12 11 11 11 10 8 5 3 2 2 2 2 3 3 3 3 3 3 3 2 3 4 5 4 4 4 3 4 4 4 6 9 9 6 3 2 1 4 5 3 3 4 6 3 2 5 3 3 5 5 6 7 8 8 6
2 3 4 6 7 6 7 9 9 8 8 8 8 9 10 9 8 7 7 7 5 5 7 7 6 6 8 11 14 12 11 12 13 11 11 11 10 9 6 4 4 4 3 2 2 2 2 3 3 3 2 1 2 3 2 3 5 6 6 5 5 6 8 9 9 8 5 3 1 2 3 4 6 3 1 2 1 5 8 7 4 1 2 6 6 6 6
4 6 8 9 9 8 8 8 7 7 7 7 8 9 8 8 7 7 7 6 5 5 6 5 5 6 6 8 12 13 12 12 11 9 9 9 9 9 7 6 6 6 5 3 2 2 1 1 2 2 2 1 2 2 3 4 6 6 6 5 5 8 11 11 10 8 6 6 4 3 3 2 5 7 6 7 6 2 4 8 8 6 6 7 8 8 8
8 10 11 9 7 8 10 10 8 7 8 8 9 8 7 7 7 6 6 5 6 5 3 2 4 7 7 7 10 12 12 12 12 10 8 9 9 8 8 8 8 8 7 5 3 2 2 1 1 1 1 2 3 3 4 6 8 8 8 5 3 7 12 14 13 9 7 7 7 7 5 3 2 3 3 4 5 6 5 2 3 3 4 6 8 9 10
11 12 11 8 6 8 11 11 9 8 8 8 8 7 6 6 5 4 4 4 5 5 2 1 2 6 8 8 10 10 10 11 13 12 11 12 11 10 10 12 12 12 11 9 7 5 5 4 2 1 2 2 4 4 4 6 9 11 11 8 4 4 9 12 13 11 8 7 8 9 9 7 5 4 3 2 3 4 5 5 3 2 2 1 3 4 6
13 13 10 7 6 9 11 11 10 10 8 7 6 4 2 3 5 4 3 3 3 4 3 3 2 3 5 6 9 10 9 10 12 13 14 14 12 11 12 14 15 15 13 12 9 8 8 8 5 3 2 2 3 4 4 5 7 9 9 7 5 5 6 7 7 6 5 5 5 6 8 10 10 8 6 4 2 3 2 2 3 4 4 4 3 2 1
12 11 10 7 6 8 11 12 14 13 10 7 5 3 2 3 4 5 6 5 4 4 3 2 2 2 2 1 4 7 9 9 11 13 14 14 14 13 13 14 16 17 16 14 12 11 12 11 8 6 5 4 3 3 4 4 5 6 6 5 5 5 5 5 5 4 3 4 4 4 7 11 12 10 9 7 4 3 2 2 2 3 2 4 5 4 5
9 9 7 4 5 9 12 12 13 12 9 7 6 5 5 2 0 4 9 8 5 5 5 4 3 3 2 2 2 3 5 7 10 12 13 15 15 14 12 13 15 16 17 17 17 17 16 15 13 11 10 8 5 4 5 6 6 6 6 6 6 6 5 5 5 5 5 5 5 5 8 11 12 10 10 10 7 5 4 3 2 2 1 2 3 4 5
9 10 7 5 7 11 12 11 10 9 8 6 5 5 6 4 2 3 7 8 8 7 5 4 2 3 3 3 2 3 4 5 7 9 10 11 13 13 13 14 15 16 17 19 20 19 18 17 16 15 14 11 9 7 7 7 7 7 7 7 7 6 5 5 5 5 6 6 6 6 7 9 10 10 9 9 8 6 5 4 2 1 0 2 4 6 4
11 10 9 6 5 6 7 7 8 7 7 6 5 5 6 6 4 3 3 4 5 5 3 3 3 3 3 2 3 4 4 6 7 9 9 9 9 10 12 14 15 17 19 20 20 19 18 18 18 18 17 14 11 10 8 8 9 10 9 7 6 6 6 5 4 4 5 6 6 7 7 8 9 8 8 8 8 7 5 4 3 4 4 4 5 6 5
11 10 9 7 6 5 6 7 8 7 6 6 6 5 5 4 5 6 6 6 5 4 4 4 4 3 3 3 4 5 6 6 8 9 10 10 10 10 12 14 15 16 18 20 20 19 18 18 17 18 19 18 15 12 11 10 10 11 11 8 6 6 6 5 4 4 4 5 5 6 7 7 7 7 7 7 8 8 8 6 5 5 5 4 4 5 6
12 10 9 9 8 8 7 8 8 8 7 7 7 6 5 4 5 6 5 5 5 6 5 4 5 5 6 7 7 8 8 9 9 10 11 11 11 11 12 14 15 16 17 19 21 20 19 18 17 17 18 20 18 15 13 11 12 13 13 11 8 7 7 6 5 4 4 4 4 4 5 5 6 7 7 7 8 9 9 8 7 8 7 6 7 8 8
14 14 13 12 12 11 10 9 9 8 8 8 8 8 7 6 7 6 5 5 6 5 5 5 6 7 8 8 9 9 9 10 11 11 12 13 12 12 12 13 15 16 17 18 20 21 21 21 21 18 18 20 19 16 13 12 12 13 14 13 11 9 8 7 5 4 5 6 4 3 4 5 6 7 7 6 7 9 10 9 8 9 8 8 9 10 10
14 13 12 13 14 13 12 11 11 9 9 9 8 8 8 8 9 9 9 9 9 8 8 8 8 9 10 10 10 11 11 12 12 13 12 12 12 13 13 14 15 16 16 17 20 21 21 23 24 22 21 21 20 18 15 13 13 14 15 14 13 11 10 9 7 6 6 7 6 4 4 5 6 7 8 8 8 9 10 10 8 7 6 6 7 9 9
13 9 7 9 12 12 10 10 9 9 9 9 8 8 8 9 10 11 11 12 11 11 11 11 11 12 12 12 12 12 13 13 14 14 14 13 13 13 14 15 16 16 16 17 18 19 21 22 24 25 25 23 21 20 18 17 16 17 17 16 16 15 14 11 7 7 9 9 7 6 6 5 4 4 6 7 8 9 10 10 10 8 7 6 6 7 7
13 9 7 9 10 10 10 10 10 9 10 10 10 11 10 9 9 9 10 11 11 10 10 11 11 11 12 12 12 12 12 12 13 13 13 14 15 15 15 16 16 17 18 18 17 18 20 21 23 27 28 26 22 22 22 22 21 21 20 19 19 18 17 13 10 10 12 12 9 7 7 6 5 4 4 3 5 8 10 11 12 12 11 10 7 5 7
14 12 11 10 10 9 9 10 10 10 10 10 9 10 10 9 9 8 8 8 9 10 10 11 12 12 13 13 14 16 16 16 16 16 15 15 16 16 16 16 16 17 19 20 20 19 18 18 21 26 29 28 25 24 25 25 26 24 24 23 22 20 18 15 12 11 12 11 9 8 7 5 4 3 1 1 3 7 10 11 12 13 13 12 10 8 10
15 14 12 11 10 8 7 7 8 8 8 7 6 6 7 7 8 8 8 9 10 10 11 11 12 12 12 13 13 13 14 15 16 16 16 16 17 17 17 17 16 17 18 18 19 19 19 20 21 25 27 26 24 24 26 27 26 24 23 23 21 18 15 13 11 9 10 9 8 8 8 7 5 3 1 2 4 8 10 11 11 10 10 11 10 10 11
14 14 12 9 8 6 6 7 7 6 6 6 6 6 7 7 8 8 9 9 9 10 11 11 11 12 13 13 13 13 13 13 13 15 16 17 18 18 19 19 19 19 19 19 19 18 19 20 21 22 23 23 24 26 29 29 26 23 23 24 20 15 13 12 10 9 11 11 10 9 9 7 5 4 6 8 9 10 11 11 10 9 8 8 9 11 11
13 12 10 8 7 8 9 9 8 7 7 7 7 7 7 8 8 8 9 9 10 11 11 12 12 12 12 13 14 15 15 15 16 17 18 19 19 19 21 22 22 21 22 22 21 18 18 19 21 22 24 24 23 25 30 33 31 27 25 22 17 13 11 11 9 8 10 12 12 12 11 10 7 6 9 12 12 12 12 11 9 7 7 8 9 11 12
12 11 11 11 11 11 11 10 8 7 7 8 8 9 9 9 9 9 9 10 11 11 11 11 11 11 12 14 16 17 17 17 18 18 19 19 19 20 21 22 22 21 21 22 20 17 17 19 20 22 24 23 21 23 28 32 32 29 25 21 17 14 12 10 8 8 9 10 11 12 12 11 9 8 10 12 12 11 9 8 8 9 10 11 11 12 11
13 13 14 14 12 11 9 8 8 7 8 8 9 8 8 8 8 8 8 8 9 9 9 9 9 10 12 14 15 16 15 15 16 17 18 19 19 19 20 19 19 19 19 18 16 13 13 14 16 17 18 20 22 24 26 26 24 22 20 18 16 14 11 10 11 13 12 10 11 12 11 10 9 9 9 9 9 7 6 8 10 11 10 10 9 9 8
15 14 13 11 9 8 8 8 8 7 6 6 6 6 6 7 7 7 6 7 8 9 9 9 10 10 12 13 14 14 14 14 14 15 16 15 15 15 15 14 14 15 14 13 12 10 10 10 11 13 17 21 22 22 23 22 18 12 9 9 10 11 12 13 14 15 14 13 13 13 12 12 12 12 11 9 8 7 7 9 11 11 10 9 8 6 5
15 12 10 9 8 9 9 8 8 7 6 6 6 7 7 6 6 5 5 7 7 7 8 9 10 10 11 12 13 13 13 12 11 10 10 9 10 10 9 9 10 10 10 10 10 10 9 9 10 13 16 17 16 16 17 15 9 5 7 9 11 14 16 17 16 14 13 12 10 10 12 13 13 13 12 11 10 11 11 11 10 11 11 10 9 8 7
12 10 10 11 11 10 8 7 6 6 6 7 7 5 4 3 3 4 5 6 6 6 7 9 10 10 10 10 10 10 9 9 8 7 6 6 8 8 7 7 7 8 8 9 10 10 10 10 13 17 17 16 16 16 14 12 10 9 7 8 12 15 16 16 15 13 12 10 9 8 9 8 7 8 11 12 12 13 14 13 12 11 11 10 8 8 9
11 11 11 10 9 8 7 7 7 7 5 4 3 3 3 4 4 4 4 5 5 6 7 8 8 8 7 6 7 8 8 8 7 6 5 7 8 8 8 7 6 6 6 8 9 10 10 12 16 19 18 17 17 16 13 11 14 13 10 8 10 11 12 12 12 12 11 11 11 11 10 7 5 6 10 12 12 13 15 14 13 11 10 8 8 9 10
11 10 9 7 7 7 6 5 5 4 4 3 3 3 3 3 4 3 3 4 5 5 6 7 7 6 5 5 6 6 7 7 8 7 5 6 7 7 6 5 5 5 7 8 9 11 12 13 15 16 15 15 16 14 9 9 12 12 9 7 7 7 6 6 7 7 7 8 10 10 10 10 9 9 10 11 12 12 12 11 10 9 8 7 7 9 9
10 9 8 7 7 6 5 4 4 4 4 4 4 4 4 5 5 5 4 3 3 4 4 5 5 5 4 4 4 4 5 5 7 7 7 6 5 4 4 6 7 8 8 10 11 12 12 13 14 14 15 16 16 14 12 12 12 9 6 7 8 7 6 6 7 6 7 9 10 11 11 11 12 12 11 11 10 8 7 6 6 8 9 8 7 8 7
11 10 8 7 6 5 4 4 4 5 6 6 6 6 7 6 4 2 2 2 2 3 4 5 4 4 3 2 3 4 5 4 5 6 7 7 6 3 5 8 10 11 10 10 10 11 11 11 12 12 14 16 15 13 14 14 12 9 8 10 12 11 9 9 8 6 6 9 10 11 9 8 8 8 8 7 5 5 4 5 5 5 7 8 8 8 6
12 10 9 8 8 7 5 5 5 6 7 6 6 6 5 3 3 2 2 1 1 2 2 4 4 4 4 4 4 5 4 4 5 5 6 7 8 6 4 7 8 8 8 8 8 8 8 8 8 8 8 9 11 13 12 10 9 10 11 13 13 12 10 9 9 8 7 7 7 7 6 5 5 5 4 3 4 5 5 6 5 4 4 7 9 8 5
10 9 9 9 8 6 5 6 5 6 7 7 5 3 3 4 5 4 2 1 2 3 4 3 2 1 1 2 4 5 4 4 5 5 5 5 7 5 2 4 4 4 4 4 6 8 9 8 6 8 11 11 11 10 9 7 9 11 11 11 11 11 11 9 9 9 10 10 9 9 8 8 7 7 6 5 5 5 5 5 5 4 3 3 4 4 4
9 7 8 9 8 6 6 7 5 3 4 7 7 5 4 5 6 5 4 4 4 4 3 3 3 2 1 2 3 4 4 3 4 5 4 5 6 6 3 4 4 3 2 2 2 1 5 9 13 15 14 11 8 6 4 5 7 9 9 8 9 10 9 7 7 9 11 12 12 12 10 9 8 7 7 6 6 6 5 5 6 5 4 4 4 5 6
Wind_Direction
289 265 238 238 258 307 313 308 327 352 2 355 0 31 35 43 68 51 326 49 74 90 183 256 273 292 30 34 17 27 51 48 33 30 28 58 103 157 191 189 185 183 185 189 188 186 189 191 194 196 196 196 196 195 197 197 196 195 195 196 198 196 196 201 203 202 203 204 205 205 209 213 213 214 216 218 221 226 232 238 244 246 247 249 252 251 245
307 308 294 259 211 239 295 308 339 356 7 17 22 33 42 51 67 77 60 46 55 60 26 320 284 306 3 32 17 19 52 57 44 27 8 18 56 145 209 198 191 187 180 174 173 171 173 178 184 190 192 195 197 198 199 199 198 197 196 198 201 201 200 203 205 204 202 203 206 205 206 211 215 215 217 217 219 223 223 227 234 237 240 246 248 247 246
303 299 298 287 230 199 253 334 2 2 13 35 35 25 28 39 52 69 73 54 40 46 49 50 9 346 4 17 9 12 54 77 76 74 36 356 1 351 344 140 189 198 189 166 162 168 166 161 166 173 179 183 188 193 195 195 197 199 200 202 204 206 208 213 217 220 215 207 207 208 208 213 217 218 219 221 223 226 223 220 221 224 229 237 239 239 238
304 289 289 282 264 194 94 31 16 6 13 49 55 37 31 35 45 60 64 54 345 354 54 83 78 49 29 6 346 344 15 66 78 77 77 70 57 49 45 60 81 184 201 187 177 182 178 166 167 176 183 184 183 187 189 190 195 200 204 207 208 210 214 217 221 226 227 220 215 214 213 214 220 222 222 223 224 226 225 222 220 223 227 232 234 235 234
293 295 302 295 287 103 96 25 24 24 18 47 72 64 48 42 49 62 61 85 244 348 48 83 80 63 49 23 354 335 348 38 68 73 76 85 85 77 74 73 69 82 177 197 193 185 179 170 171 181 190 197 205 202 195 196 202 205 207 210 211 212 214 215 216 220 224 224 222 222 219 218 221 225 226 226 226 225 224 223 222 225 228 230 232 233 232
289 302 314 328 13 89 155 267 84 78 51 57 66 59 48 44 52 90 113 140 125 58 60 75 76 68 52 38 36 24 10 51 74 74 70 72 75 78 78 73 68 71 89 126 115 116 157 184 195 199 205 218 235 230 211 211 214 214 217 223 229 231 227 220 215 216 222 225 226 228 227 224 225 227 229 230 229 228 227 226 225 226 228 230 233 235 234
300 318 337 4 26 55 297 323 14 53 76 87 81 59 42 40 42 54 67 75 85 82 74 73 77 73 56 46 50 54 58 64 64 64 66 64 61 64 66 68 69 66 67 79 91 87 101 174 207 209 209 220 230 226 213 213 213 210 215 223 230 234 235 232 226 222 225 228 230 230 229 228 228 230 232 233 233 232 231 230 229 229 229 230 233 236 237
237 6 10 14 248 308 351 11 10 18 42 78 82 56 29 20 28 39 45 57 70 77 73 73 84 79 59 48 50 59 73 78 71 70 73 75 72 65 60 63 66 63 64 72 80 80 79 89 100 103 140 198 215 212 207 216 209 194 201 210 216 220 225 229 229 228 230 233 234 235 234 234 233 234 235 235 234 233 232 233 234 234 234 235 235 235 236
143 114 115 147 138 337 351 8 348 350 3 2 54 87 29 356 19 42 46 55 69 79 77 63 69 70 59 46 39 47 69 85 84 83 85 87 84 74 67 70 72 70 68 68 71 74 75 76 78 74 73 81 94 103 107 101 105 145 182 199 207 212 216 218 219 223 226 230 234 237 239 240 240 239 240 240 239 237 236 236 237 236 235 236 236 236 237
343 124 161 96 105 275 301 313 315 336 1 360 23 98 46 344 26 51 56 61 79 93 96 88 75 60 60 49 25 34 59 82 90 91 95 99 97 88 83 85 85 86 84 77 75 77 73 72 74 75 75 75 78 85 93 97 103 118 149 182 195 206 216 217 218 220 222 225 229 232 236 241 242 242 243 244 244 245 245 244 243 241 240 240 240 241 242
256 183 153 96 122 222 253 274 301 343 5 354 360 72 17 340 32 57 60 61 81 101 109 113 115 96 76 71 23 46 69 85 95 98 99 102 103 98 96 98 97 98 98 96 97 95 86 83 85 86 84 78 74 79 87 94 103 112 117 119 124 133 134 151 207 220 221 223 226 229 235 240 241 242 244 245 245 245 245 246 247 247 247 248 249 249 249
274 285 88 83 96 235 267 277 316 349 354 350 15 71 344 355 37 57 61 61 81 110 123 118 109 112 144 155 144 113 100 95 96 105 109 108 106 105 105 105 105 109 112 108 99 91 88 92 98 99 96 87 79 77 82 91 100 107 108 105 105 113 109 96 93 105 106 115 215 225 234 238 239 242 244 245 244 242 241 244 246 245 245 246 248 250 250
354 46 64 86 105 314 288 313 354 350 333 356 57 143 248 22 51 60 61 66 85 108 124 122 108 127 147 146 144 136 121 111 107 113 120 118 116 118 120 119 118 116 115 112 102 91 86 92 96 95 95 92 85 79 77 82 89 97 103 105 104 108 112 104 95 88 77 59 50 165 212 221 225 233 236 233 236 237 236 239 243 240 239 242 244 248 249
16 79 87 112 109 344 321 352 22 15 352 100 87 122 122 79 74 70 61 71 91 99 111 121 123 127 132 138 144 144 136 130 127 127 129 126 122 124 128 130 128 117 106 102 100 94 90 96 98 95 93 93 90 86 80 75 75 86 101 110 108 103 105 103 98 90 78 59 41 44 71 129 179 189 196 202 215 219 214 219 229 234 240 246 249 252 250
4 84 72 103 151 7 16 36 34 24 43 139 121 93 89 80 72 68 65 72 94 104 112 123 133 137 136 139 146 148 146 146 144 140 140 135 128 125 127 130 130 120 107 98 93 91 90 96 105 106 98 92 90 89 88 85 81 83 90 99 105 107 109 106 98 91 83 71 58 56 60 65 94 125 125 122 127 132 132 136 147 162 193 214 218 225 227
43 77 55 126 131 61 52 66 81 69 78 89 87 88 90 82 61 57 68 78 96 114 123 130 140 145 143 144 148 149 149 150 148 145 146 141 131 122 117 119 121 118 110 102 97 97 98 100 107 111 106 101 96 88 89 95 94 88 84 83 84 88 103 111 104 95 90 84 75 70 70 73 83 93 96 101 108 112 108 106 110 120 146 180 193 201 195
71 107 141 133 115 94 72 71 79 82 80 79 81 83 87 89 75 55 68 92 108 118 124 135 146 152 153 152 150 150 150 148 146 146 144 138 130 122 114 112 110 106 101 96 91 89 87 85 89 95 99 111 114 104 102 106 103 93 89 88 83 77 79 92 97 98 103 99 83 73 78 87 92 92 91 94 104 111 111 108 107 105 104 113 125 135 137
70 85 115 123 112 101 90 80 76 77 78 80 84 82 82 88 85 65 76 109 126 125 131 145 154 159 162 158 153 155 154 150 150 150 146 140 132 124 117 111 105 101 99 94 90 85 80 75 73 74 78 80 79 94 111 116 108 98 98 98 94 87 81 80 79 76 85 100 93 77 80 91 94 93 94 95 99 105 108 110 113 115 113 107 100 99 109
94 75 93 107 102 96 93 89 84 82 80 79 83 85 83 86 85 78 86 111 132 137 149 162 164 166 168 163 158 159 159 160 165 163 156 154 148 136 127 116 107 106 104 99 99 92 87 86 82 76 76 71 63 67 81 90 96 108 119 114 108 103 99 96 87 68 56 61 72 80 98 109 98 96 99 105 112 106 94 91 104 122 128 126 121 121 127
102 101 80 93 97 99 103 102 97 94 91 87 85 87 87 86 86 84 93 109 125 140 151 157 165 174 178 172 163 162 165 170 175 176 173 169 162 156 150 134 114 108 98 85 90 92 96 105 110 107 97 82 74 76 83 98 114 115 108 109 124 136 131 129 123 99 64 40 65 90 97 65 322 226 171 122 143 136 97 76 85 110 124 133 141 143 141
96 101 96 97 96 89 91 102 103 101 102 98 89 90 93 94 92 87 92 106 119 128 130 141 159 174 183 184 175 170 172 177 180 185 186 179 173 174 175 168 161 148 117 78 64 67 76 87 100 119 131 125 113 105 104 122 145 162 155 123 126 145 143 143 149 139 91 18 43 98 101 54 354 259 255 269 185 175 166 100 93 107 128 142 151 154 157
142 139 119 110 110 108 107 111 111 108 113 117 109 99 96 98 99 93 87 93 110 125 129 142 158 164 176 186 182 177 181 188 193 200 201 196 195 200 201 201 204 195 174 140 105 75 51 44 49 52 53 132 180 168 143 135 143 157 163 144 132 145 148 152 166 173 163 151 120 107 114 69 53 65 286 332 78 187 205 198 177 178 198 180 171 174 183
156 157 139 121 123 138 144 138 129 118 119 128 124 110 99 100 104 102 91 80 82 112 130 147 173 184 186 185 185 186 188 193 201 211 215 213 213 213 217 224 224 219 218 213 182 144 107 73 65 54 45 73 181 182 170 160 151 156 168 160 137 144 155 165 176 179 175 175 167 140 137 93 62 67 52 27 33 64 200 206 215 255 265 237 224 224 226
144 156 151 139 137 148 153 155 153 140 127 127 128 123 117 113 109 109 115 103 89 103 139 157 172 185 189 189 196 201 201 203 210 214 213 217 221 220 223 233 240 239 239 241 238 228 232 231 154 134 126 149 176 185 177 170 170 175 188 202 180 154 163 178 189 190 189 195 190 177 172 166 104 88 56 31 37 46 51 100 210 247 268 256 252 253 252
151 157 152 141 142 153 154 158 161 153 144 141 138 133 135 142 137 126 132 126 102 94 90 77 152 176 184 189 203 214 216 217 220 218 215 219 227 232 235 242 253 257 252 251 259 268 275 283 281 216 188 171 170 178 177 175 182 188 194 207 220 183 172 184 194 194 191 190 192 201 213 206 172 155 147 97 59 43 45 55 63 59 35 320 281 269 262
144 150 150 146 152 159 161 162 156 145 147 155 152 145 139 141 139 133 130 139 133 116 88 62 88 163 183 191 206 217 220 221 224 226 226 228 234 244 249 251 258 262 260 259 268 277 279 284 295 291 254 223 195 191 187 179 181 187 193 203 214 200 184 188 194 193 192 189 187 202 214 205 188 179 173 152 80 37 37 38 37 43 33 11 9 25 27
143 149 152 162 175 169 164 161 151 142 143 148 149 165 167 117 121 155 167 165 161 157 146 105 92 109 120 158 206 218 222 226 231 236 240 243 249 257 258 256 259 262 259 256 264 276 276 273 273 273 263 251 237 216 207 201 190 186 190 196 195 189 183 179 179 176 167 163 158 155 176 191 196 189 173 161 132 82 80 63 57 77 53 5 2 14 25
154 161 158 146 136 139 143 148 148 148 152 151 147 169 186 174 244 211 194 179 157 149 169 185 174 159 170 181 194 218 236 242 241 242 246 252 258 263 258 250 252 259 261 260 263 270 272 266 260 258 257 255 254 241 221 214 206 198 192 182 170 166 165 160 161 161 150 146 149 146 158 180 194 188 170 161 154 150 162 166 123 96 40 342 331 336 5
158 166 166 139 125 134 139 141 144 149 158 166 170 184 193 195 206 198 181 163 143 141 167 199 198 192 212 224 221 231 257 266 260 256 257 262 266 269 263 254 250 251 256 260 263 265 264 262 258 255 252 249 247 243 235 225 213 207 206 194 171 160 160 158 151 148 148 150 154 152 157 174 187 187 179 174 172 177 188 191 177 155 254 272 288 306 339
161 164 168 158 148 157 159 158 161 165 172 185 196 190 181 176 174 179 179 154 141 147 173 180 175 204 245 266 253 247 262 278 280 279 281 282 281 280 275 268 260 250 244 248 256 261 260 257 256 255 253 249 243 239 242 238 223 215 215 205 181 168 167 163 152 147 150 150 149 151 160 174 183 184 180 180 183 182 170 154 158 185 205 232 278 300 308
164 165 169 169 170 178 178 175 178 181 181 189 198 194 182 179 191 206 219 226 227 223 200 172 172 206 226 228 240 258 277 287 287 289 292 290 287 282 277 273 273 266 251 243 248 257 259 256 254 254 253 250 244 241 246 248 238 230 224 212 195 188 184 173 163 164 163 156 156 163 165 166 169 170 169 175 182 179 168 162 177 197 208 222 248 274 290
167 165 173 182 186 191 193 185 182 186 191 194 200 207 214 217 212 208 209 209 209 206 202 207 222 228 226 232 247 264 279 284 286 291 295 296 294 289 278 272 274 275 264 250 247 252 254 252 252 253 253 251 248 244 246 249 243 235 229 219 209 205 202 195 186 180 183 185 181 169 155 152 163 171 177 184 187 182 179 186 200 210 221 235 247 259 271
176 174 184 195 196 195 196 192 189 195 201 199 200 209 217 222 227 234 239 237 225 218 225 238 238 234 238 248 256 266 276 283 287 289 290 292 296 295 288 280 275 273 268 261 255 252 249 248 251 253 253 252 250 247 245 245 236 227 224 226 224 215 208 210 209 196 200 217 220 187 162 178 194 200 205 207 202 195 194 198 207 217 228 242 254 264 271
189 187 193 198 197 195 196 194 194 199 204 206 212 220 226 229 232 234 235 238 239 238 240 242 241 243 248 254 261 271 279 282 284 287 288 288 289 290 292 291 286 277 271 264 258 255 252 250 250 251 250 246 242 241 242 239 228 219 218 223 226 221 215 217 214 200 205 222 230 222 214 216 212 210 215 220 217 211 206 203 208 221 234 244 254 262 269
195 189 173 172 181 187 188 187 190 200 210 217 221 225 230 232 233 236 241 247 250 250 252 256 260 263 266 270 275 279 280 279 278 281 284 283 281 281 284 288 288 285 277 269 265 264 262 253 248 251 255 250 239 232 230 228 225 225 225 224 223 223 224 223 209 191 201 218 230 232 234 242 239 225 222 224 222 221 217 210 205 211 221 228 240 257 266
193 190 179 175 179 184 189 194 199 205 211 215 217 220 227 232 234 239 248 255 258 260 263 265 265 264 265 268 271 272 274 275 276 278 281 282 280 279 279 282 285 286 283 280 277 274 268 259 254 255 256 250 234 220 219 224 230 235 238 236 231 227 224 217 202 194 204 217 230 240 246 257 261 253 250 237 210 206 210 211 207 207 211 210 210 235 265
193 197 202 204 201 197 201 207 210 209 212 218 223 228 234 240 243 244 245 246 248 252 255 258 262 264 265 267 269 270 272 273 274 277 281 283 282 279 277 279 283 283 282 282 280 275 272 269 263 257 254 248 232 216 217 226 233 235 238 239 237 233 224 212 205 213 223 227 236 246 249 248 245 247 299 46 157 189 207 218 216 214 217 222 227 243 262
189 194 201 207 208 205 204 208 210 212 215 221 225 229 231 232 234 238 240 243 250 257 260 261 264 266 267 270 277 281 282 282 279 278 277 277 277 275 273 271 273 275 277 279 279 276 274 272 267 264 263 259 245 229 224 224 223 224 229 230 229 232 229 213 204 228 251 255 258 255 237 211 193 179 147 162 196 210 226 236 237 236 241 245 246 248 250
186 192 199 203 202 198 194 192 190 189 194 204 213 223 231 237 242 247 250 253 258 261 262 263 265 266 267 271 278 284 287 285 280 276 274 274 274 273 272 270 271 273 275 277 280 280 279 277 272 269 267 263 255 244 234 223 215 217 225 224 225 236 241 222 210 231 245 241 244 250 241 224 212 201 203 212 218 224 233 246 256 263 265 256 242 234 235
187 192 193 189 185 182 181 182 182 186 199 213 221 225 232 239 243 245 248 252 255 260 264 268 271 274 277 280 282 282 283 283 282 280 279 279 279 278 276 275 276 277 277 277 277 277 277 275 273 268 264 260 255 248 239 230 221 217 215 215 220 231 225 206 204 222 220 211 217 232 242 252 260 242 220 222 228 234 241 252 259 251 241 236 234 233 235
182 184 183 182 184 185 188 195 203 210 218 226 230 234 240 245 246 248 254 258 262 268 272 272 274 279 283 285 286 285 284 285 286 285 286 288 289 288 286 283 282 281 280 279 278 276 271 269 271 271 267 257 245 236 232 228 223 218 217 223 233 232 215 201 211 219 206 202 219 235 241 247 247 232 222 227 234 240 247 248 237 228 230 239 247 247 245
178 182 186 190 195 202 208 217 222 226 233 244 252 257 259 257 253 254 262 269 273 276 277 276 279 283 284 285 288 289 286 284 286 289 292 295 295 293 291 290 287 283 279 276 275 274 272 272 275 272 257 239 224 218 218 221 223 224 228 234 234 222 205 205 221 223 215 214 225 231 231 224 213 206 211 221 228 232 235 230 228 231 236 244 251 254 250
183 188 193 198 205 211 212 213 212 214 226 249 263 260 252 250 254 258 264 274 280 282 279 278 281 285 288 290 292 290 287 286 290 294 298 302 301 298 294 290 288 284 279 272 266 264 264 268 267 251 233 222 216 214 218 225 229 221 195 181 188 197 200 202 205 208 212 216 221 226 227 220 211 210 215 219 215 210 214 221 226 231 232 232 236 237 229
190 194 195 194 196 200 206 212 217 222 229 240 247 247 247 253 262 269 274 281 284 284 283 283 283 285 289 291 290 289 289 291 295 298 300 302 304 302 292 281 281 284 280 270 264 260 252 242 231 222 218 217 216 216 218 221 218 177 147 163 188 207 213 209 203 203 209 214 221 233 238 234 228 228 230 225 215 211 216 222 226 226 224 224 227 227 222
190 190 190 192 198 203 206 208 212 220 229 235 239 245 255 261 259 262 271 278 280 279 284 288 289 290 290 289 289 292 298 300 298 292 283 282 291 297 294 286 287 287 278 268 264 262 252 228 207 202 203 202 202 206 206 192 164 146 153 184 198 206 212 215 216 215 211 204 203 216 227 228 227 228 226 220 212 211 217 223 226 227 225 221 218 219 224
186 191 198 202 202 202 203 205 211 217 223 231 239 243 246 246 248 253 267 281 281 276 277 285 292 294 292 287 285 290 299 305 301 286 259 259 277 293 300 301 297 290 280 270 256 246 236 215 201 201 206 205 204 209 211 192 174 172 177 187 198 208 218 222 223 222 216 210 211 217 219 215 207 214 221 221 218 215 218 222 226 228 225 217 215 226 237
184 193 199 191 181 186 195 199 200 199 196 207 235 244 236 232 234 236 250 278 290 282 274 277 284 285 282 282 283 285 293 304 309 303 283 270 276 283 286 285 280 273 270 261 243 226 215 209 206 211 215 213 212 215 212 186 179 187 198 203 204 209 216 217 219 218 209 205 211 219 219 212 204 207 219 228 228 223 223 227 225 213 204 208 226 240 245
176 181 182 175 174 185 190 179 177 193 203 210 216 214 213 225 235 236 239 259 277 275 270 274 282 285 286 288 293 294 295 299 306 312 313 305 290 270 244 241 247 250 249 242 231 223 218 217 218 221 223 224 227 229 216 191 175 171 178 185 182 178 185 201 207 201 191 197 212 226 228 220 212 214 227 237 232 222 224 236 223 194 186 202 232 241 233
170 175 185 187 180 175 175 182 195 205 208 214 222 224 230 241 250 244 238 248 252 261 279 292 301 307 309 305 301 304 305 306 312 319 318 312 303 275 225 223 235 243 248 248 243 237 233 231 230 233 236 236 231 218 201 188 177 173 189 201 198 194 199 212 218 214 209 214 225 235 239 232 223 227 236 235 208 187 212 251 249 203 185 201 225 236 236
175 183 193 192 182 176 182 199 206 199 199 215 238 244 236 221 197 190 216 235 208 219 275 304 322 335 339 335 328 324 323 330 337 335 327 320 317 304 249 224 229 239 250 256 252 241 237 242 241 234 224 209 190 178 174 173 174 184 200 210 210 206 210 219 225 222 217 217 223 225 219 214 221 231 228 195 171 183 217 246 254 234 209 219 228 230 229
175 186 191 191 192 199 205 209 215 214 208 210 220 227 203 189 194 207 222 204 191 207 230 251 274 296 303 308 319 328 335 340 341 345 349 348 346 340 263 202 203 217 239 256 253 243 241 238 210 172 155 149 152 161 167 170 178 189 202 211 213 211 212 220 227 226 223 225 230 227 214 206 213 222 218 203 197 205 223 241 243 233 226 235 232 215 206
181 185 183 187 199 216 215 211 222 237 197 187 193 206 214 204 205 211 207 194 197 218 238 253 273 291 296 284 303 325 345 349 335 336 353 14 18 25 63 114 115 99 81 63 54 265 225 198 173 155 141 133 138 159 181 195 206 221 234 236 223 213 213 223 236 238 235 236 238 234 221 207 203 210 218 216 203 198 213 246 256 242 219 210 213 218 225
Height
1501 1497 1498 1496 1497 1500 1499 1498 1495 1491 1489 1489 1491 1498 1498 1497 1512 1524 1514 1505 1514 1518 1511 1506 1502 1499 1502 1506 1507 1509 1509 1507 1506 1507 1509 1511 1510 1510 1509 1510 1512 1514 1517 1519 1521 1521 1521 1522 1523 1525 1527 1529 1530 1533 1536 1538 1540 1543 1546 1549 1551 1554 1556 1559 1561 1563 1565 1567 1568 1569 1570 1571 1573 1574 1575 1575 1575 1575 1576 1576 1577 1578 1579 1580 1581 1581 1583
1501 1497 1496 1493 1495 1500 1500 1498 1497 1495 1495 1496 1498 1501 1499 1501 1511 1515 1512 1514 1521 1522 1519 1512 1505 1505 1508 1509 1508 1509 1511 1512 1509 1508 1510 1512 1513 1512 1510 1509 1510 1512 1515 1517 1519 1520 1520 1521 1522 1524 1527 1529 1530 1532 1534 1537 1539 1541 1544 1548 1550 1553 1555 1556 1558 1559 1561 1563 1565 1567 1568 1569 1570 1571 1572 1573 1573 1574 1574 1575 1576 1576 1577 1578 1579 1579 1580
1506 1499 1495 1493 1494 1498 1500 1501 1500 1499 1501 1503 1505 1506 1504 1506 1512 1513 1515 1521 1522 1522 1523 1520 1515 1514 1513 1512 1511 1509 1510 1512 1512 1511 1512 1512 1514 1515 1515 1514 1513 1513 1515 1516 1516 1518 1520 1522 1524 1526 1529 1530 1531 1532 1533 1535 1538 1540 1543 1545 1548 1551 1553 1555 1557 1560 1562 1563 1564 1565 1565 1566 1567 1568 1570 1571 1572 1572 1573 1573 1574 1574 1575 1576 1577 1578 1578
1514 1502 1497 1496 1492 1493 1501 1507 1507 1505 1507 1509 1510 1512 1511 1513 1517 1519 1521 1526 1525 1522 1523 1525 1525 1523 1520 1517 1515 1511 1511 1512 1513 1514 1514 1515 1517 1518 1518 1518 1516 1515 1516 1517 1517 1519 1521 1523 1525 1528 1531 1531 1532 1532 1533 1535 1537 1539 1542 1544 1546 1549 1551 1554 1557 1560 1562 1564 1564 1564 1564 1564 1565 1566 1568 1569 1570 1571 1571 1572 1572 1573 1573 1574 1575 1576 1577
1517 1503 1498 1497 1495 1503 1515 1516 1511 1509 1509 1511 1513 1514 1514 1513 1516 1522 1526 1528 1526 1523 1522 1524 1526 1527 1526 1525 1520 1514 1513 1515 1516 1516 1516 1517 1519 1519 1521 1521 1519 1517 1517 1518 1520 1520 1521 1522 1524 1527 1529 1531 1532 1534 1535 1536 1537 1539 1542 1544 1546 1548 1550 1553 1556 1558 1560 1562 1562 1563 1562 1562 1562 1564 1565 1567 1568 1568 1569 1570 1570 1571 1571 1572 1573 1574 1574
1518 1507 1500 1500 1509 1523 1525 1514 1506 1507 1510 1514 1518 1519 1518 1516 1516 1520 1523 1523 1522 1523 1523 1523 1526 1527 1528 1529 1525 1519 1516 1518 1519 1517 1516 1517 1518 1519 1520 1520 1519 1519 1519 1521 1523 1523 1523 1524 1525 1527 1529 1531 1534 1535 1536 1536 1536 1538 1540 1542 1545 1547 1549 1553 1556 1558 1560 1560 1560 1560 1559 1559 1560 1561 1562 1564 1565 1566 1566 1567 1568 1568 1568 1569 1570 1571 1572
1517 1510 1508 1520 1531 1529 1518 1508 1505 1505 1508 1513 1517 1519 1518 1517 1517 1518 1520 1521 1523 1524 1524 1524 1526 1527 1528 1528 1527 1522 1520 1521 1521 1520 1519 1517 1518 1519 1520 1519 1519 1520 1522 1523 1524 1525 1526 1527 1527 1528 1530 1532 1533 1534 1534 1535 1535 1537 1539 1542 1544 1547 1550 1553 1555 1557 1557 1557 1557 1557 1556 1557 1557 1558 1559 1560 1561 1562 1563 1564 1565 1565 1566 1566 1567 1568 1569
1516 1518 1523 1535 1537 1524 1512 1511 1509 1506 1508 1511 1515 1522 1523 1518 1518 1519 1519 1522 1523 1524 1525 1525 1526 1528 1530 1530 1529 1526 1525 1524 1523 1523 1523 1521 1521 1521 1521 1521 1521 1522 1524 1524 1525 1526 1527 1528 1528 1529 1530 1531 1531 1531 1532 1533 1534 1536 1539 1541 1543 1545 1548 1551 1552 1552 1552 1552 1553 1553 1554 1555 1555 1556 1557 1557 1557 1558 1560 1561 1562 1563 1564 1564 1565 1565 1566
1516 1524 1527 1527 1531 1529 1521 1518 1515 1512 1513 1511 1514 1525 1528 1522 1519 1520 1521 1523 1525 1526 1527 1528 1528 1530 1532 1534 1532 1530 1530 1528 1526 1525 1526 1525 1524 1523 1523 1523 1524 1525 1527 1527 1527 1527 1527 1528 1528 1529 1530 1530 1529 1529 1530 1530 1532 1534 1536 1537 1539 1542 1544 1546 1547 1547 1547 1548 1549 1550 1551 1552 1553 1553 1553 1554 1554 1555 1556 1558 1559 1560 1561 1561 1562 1563 1564
1513 1521 1526 1526 1536 1541 1531 1523 1519 1514 1514 1511 1510 1521 1530 1526 1523 1524 1524 1525 1527 1527 1528 1529 1529 1530 1534 1538 1537 1534 1533 1533 1531 1529 1528 1527 1527 1528 1528 1528 1527 1528 1530 1530 1530 1530 1529 1529 1529 1530 1530 1529 1528 1528 1529 1529 1530 1532 1534 1536 1538 1540 1542 1542 1542 1543 1544 1544 1545 1547 1548 1549 1550 1550 1551 1551 1551 1552 1553 1554 1555 1556 1557 1557 1558 1559 1561
1515 1519 1527 1532 1539 1540 1530 1524 1519 1514 1516 1513 1510 1524 1537 1532 1526 1527 1526 1527 1528 1528 1528 1528 1527 1528 1535 1540 1539 1537 1536 1536 1534 1533 1532 1530 1531 1532 1532 1531 1531 1532 1533 1532 1532 1531 1531 1531 1531 1530 1530 1529 1528 1528 1529 1530 1531 1532 1534 1536 1539 1540 1541 1540 1540 1541 1541 1541 1542 1544 1545 1546 1547 1547 1547 1548 1548 1549 1550 1550 1551 1552 1553 1554 1555 1556 1557
1516 1518 1526 1533 1537 1534 1526 1522 1519 1516 1515 1512 1517 1539 1547 1534 1528 1530 1528 1527 1529 1528 1528 1528 1526 1527 1532 1534 1535 1535 1536 1536 1536 1535 1535 1534 1534 1534 1534 1533 1532 1532 1532 1532 1531 1532 1532 1533 1532 1531 1530 1529 1528 1529 1530 1531 1532 1533 1536 1538 1539 1540 1540 1540 1540 1540 1540 1540 1541 1542 1543 1544 1544 1544 1544 1545 1545 1546 1547 1547 1548 1549 1550 1551 1552 1553 1554
1517 1522 1531 1536 1535 1530 1523 1521 1519 1515 1514 1519 1534 1549 1545 1532 1531 1532 1528 1528 1530 1529 1528 1528 1527 1527 1528 1529 1532 1534 1534 1535 1535 1535 1535 1535 1535 1535 1535 1534 1533 1533 1532 1532 1531 1532 1532 1532 1531 1531 1530 1530 1530 1531 1532 1534 1536 1537 1538 1539 1540 1541 1541 1540 1541 1541 1541 1542 1542 1542 1543 1543 1543 1543 1543 1543 1544 1544 1544 1545 1545 1547 1548 1548 1549 1550 1551
1520 1523 1531 1537 1537 1529 1522 1521 1519 1514 1520 1534 1542 1540 1534 1532 1533 1531 1529 1530 1530 1529 1529 1528 1528 1529 1530 1531 1533 1534 1534 1535 1535 1535 1536 1536 1535 1536 1536 1536 1535 1535 1535 1535 1535 1535 1534 1534 1533 1533 1533 1533 1534 1535 1536 1537 1539 1540 1540 1540 1541 1542 1542 1542 1542 1542 1542 1543 1544 1543 1543 1542 1542 1543 1543 1543 1543 1543 1543 1543 1544 1544 1545 1545 1546 1547 1548
1521 1525 1533 1542 1543 1531 1521 1521 1521 1520 1527 1536 1535 1531 1531 1533 1531 1530 1531 1530 1530 1530 1531 1530 1530 1532 1532 1533 1534 1535 1535 1535 1535 1536 1536 1536 1536 1536 1536 1537 1537 1537 1537 1537 1537 1537 1537 1537 1536 1536 1536 1537 1538 1539 1539 1540 1541 1541 1541 1541 1542 1543 1543 1543 1543 1543 1544 1544 1544 1544 1543 1543 1543 1543 1542 1542 1542 1543 1543 1543 1543 1543 1543 1544 1545 1546 1547
1524 1532 1537 1538 1535 1528 1522 1523 1526 1526 1528 1530 1529 1530 1532 1531 1530 1531 1531 1530 1531 1532 1531 1531 1533 1534 1534 1536 1536 1536 1537 1536 1536 1537 1537 1537 1538 1538 1538 1538 1539 1539 1539 1539 1538 1538 1538 1538 1538 1538 1538 1539 1540 1541 1542 1542 1542 1542 1542 1542 1543 1543 1544 1544 1544 1544 1544 1544 1545 1544 1544 1543 1543 1543 1542 1542 1542 1542 1542 1542 1542 1542 1543 1544 1546 1546 1547
1521 1527 1529 1526 1524 1525 1525 1525 1526 1527 1528 1529 1529 1530 1530 1530 1532 1532 1530 1531 1532 1532 1532 1533 1534 1535 1536 1537 1538 1538 1539 1539 1538 1539 1538 1539 1539 1539 1539 1540 1540 1540 1540 1540 1539 1539 1538 1538 1538 1539 1539 1540 1541 1541 1542 1543 1543 1543 1543 1543 1542 1543 1544 1545 1545 1545 1545 1545 1545 1545 1545 1545 1544 1543 1543 1543 1542 1542 1542 1542 1543 1543 1544 1545 1546 1546 1547
1519 1521 1522 1522 1523 1525 1526 1527 1527 1528 1529 1530 1530 1530 1530 1531 1532 1531 1531 1532 1532 1532 1533 1534 1534 1536 1537 1538 1539 1540 1540 1540 1541 1541 1541 1541 1541 1540 1540 1540 1540 1541 1541 1541 1540 1539 1538 1538 1539 1539 1540 1541 1542 1542 1543 1543 1543 1543 1543 1543 1543 1544 1545 1546 1546 1546 1546 1546 1546 1546 1545 1546 1546 1545 1544 1544 1544 1543 1543 1543 1543 1543 1544 1545 1546 1547 1547
1523 1525 1523 1521 1523 1525 1526 1527 1529 1529 1530 1531 1531 1531 1532 1532 1532 1532 1532 1532 1532 1533 1534 1534 1534 1536 1537 1538 1539 1540 1541 1542 1542 1542 1542 1542 1542 1542 1541 1541 1541 1541 1541 1541 1540 1539 1538 1538 1539 1539 1540 1541 1542 1543 1543 1543 1543 1543 1543 1543 1543 1545 1546 1546 1546 1546 1547 1546 1546 1546 1546 1546 1546 1546 1546 1545 1545 1545 1545 1545 1545 1544 1544 1545 1546 1547 1547
1523 1526 1524 1521 1523 1526 1526 1528 1529 1529 1530 1531 1531 1532 1532 1532 1532 1533 1532 1533 1533 1533 1533 1534 1535 1535 1536 1538 1539 1540 1541 1542 1542 1542 1543 1543 1542 1543 1543 1542 1543 1542 1542 1541 1540 1539 1539 1539 1539 1540 1541 1541 1542 1542 1543 1543 1543 1543 1543 1543 1543 1544 1545 1546 1546 1546 1547 1547 1546 1546 1546 1546 1547 1546 1546 1546 1546 1546 1547 1547 1547 1546 1546 1546 1547 1547 1548
1524 1524 1523 1523 1525 1527 1527 1528 1529 1530 1530 1531 1532 1532 1533 1533 1533 1533 1533 1533 1534 1533 1534 1535 1535 1535 1536 1537 1538 1539 1541 1541 1541 1542 1542 1542 1543 1544 1544 1544 1544 1543 1542 1542 1541 1540 1540 1539 1539 1540 1541 1541 1542 1542 1543 1543 1543 1543 1543 1543 1543 1544 1544 1544 1545 1546 1547 1547 1547 1546 1546 1546 1546 1546 1546 1546 1547 1548 1549 1548 1547 1548 1548 1548 1548 1548 1548
1526 1524 1523 1523 1526 1528 1529 1528 1529 1530 1531 1531 1532 1532 1533 1533 1534 1534 1534 1534 1534 1534 1534 1535 1535 1536 1536 1537 1538 1539 1540 1540 1541 1541 1542 1542 1544 1544 1544 1545 1544 1543 1543 1543 1542 1542 1541 1540 1540 1541 1541 1541 1542 1542 1543 1543 1543 1543 1542 1542 1543 1544 1544 1544 1544 1545 1546 1547 1547 1546 1546 1546 1546 1546 1547 1548 1548 1549 1549 1548 1547 1548 1549 1549 1549 1549 1549
1523 1522 1522 1523 1524 1526 1527 1528 1529 1530 1530 1531 1531 1532 1533 1534 1534 1534 1534 1534 1534 1534 1535 1535 1536 1536 1536 1537 1538 1538 1539 1540 1540 1541 1541 1542 1543 1544 1544 1545 1544 1544 1544 1544 1543 1543 1543 1542 1542 1541 1541 1542 1542 1542 1543 1543 1544 1543 1542 1541 1542 1542 1543 1544 1544 1544 1546 1547 1548 1548 1547 1546 1546 1547 1548 1549 1549 1549 1549 1548 1548 1549 1550 1549 1549 1549 1549
1519 1520 1522 1522 1523 1525 1526 1528 1528 1529 1529 1530 1531 1532 1532 1533 1534 1534 1534 1534 1534 1535 1535 1535 1536 1536 1537 1537 1538 1538 1538 1539 1539 1540 1541 1542 1542 1544 1544 1544 1545 1545 1545 1544 1545 1545 1544 1544 1543 1543 1542 1542 1542 1543 1543 1544 1544 1544 1543 1543 1542 1542 1542 1543 1543 1544 1545 1546 1547 1548 1548 1546 1546 1547 1549 1550 1550 1550 1550 1549 1549 1550 1551 1550 1549 1549 1548
1518 1520 1521 1522 1523 1524 1526 1527 1528 1528 1529 1530 1531 1532 1533 1533 1533 1534 1534 1534 1534 1535 1535 1535 1536 1536 1537 1537 1537 1537 1538 1538 1539 1540 1541 1541 1542 1543 1544 1544 1545 1545 1545 1545 1546 1546 1545 1545 1545 1544 1544 1543 1543 1543 1543 1544 1544 1545 1545 1545 1544 1543 1543 1543 1543 1543 1544 1544 1546 1547 1548 1548 1547 1547 1549 1551 1552 1551 1551 1551 1550 1551 1550 1550 1549 1548 1548
1518 1519 1521 1522 1523 1524 1525 1526 1527 1528 1530 1530 1531 1532 1532 1533 1533 1534 1534 1534 1535 1535 1535 1535 1536 1536 1536 1537 1537 1537 1537 1538 1538 1539 1540 1541 1542 1542 1543 1544 1544 1544 1545 1546 1546 1546 1546 1546 1546 1545 1545 1544 1544 1544 1544 1544 1544 1545 1545 1545 1545 1544 1544 1543 1543 1543 1544 1544 1545 1546 1548 1549 1548 1548 1549 1551 1552 1552 1552 1552 1551 1550 1550 1549 1549 1548 1547
1518 1519 1520 1522 1522 1523 1524 1525 1526 1528 1529 1529 1530 1530 1531 1532 1533 1533 1533 1534 1534 1534 1535 1535 1535 1536 1536 1536 1536 1537 1537 1538 1538 1539 1539 1540 1541 1541 1542 1543 1543 1543 1544 1544 1544 1545 1545 1545 1546 1545 1545 1545 1545 1545 1545 1545 1545 1545 1545 1545 1545 1545 1544 1544 1544 1544 1544 1544 1545 1546 1547 1548 1549 1549 1550 1550 1551 1551 1551 1550 1550 1550 1549 1548 1548 1547 1547
1518 1519 1520 1521 1522 1522 1523 1524 1525 1527 1528 1529 1529 1530 1530 1531 1531 1531 1532 1533 1533 1533 1534 1535 1535 1535 1536 1536 1536 1536 1537 1537 1538 1538 1539 1539 1540 1540 1541 1541 1541 1542 1542 1542 1543 1543 1543 1543 1544 1544 1544 1544 1545 1545 1545 1545 1545 1545 1545 1545 1545 1545 1545 1544 1544 1544 1544 1544 1545 1545 1546 1547 1548 1549 1549 1549 1550 1550 1549 1549 1549 1549 1548 1548 1546 1546 1547
1518 1519 1520 1521 1521 1522 1523 1524 1525 1526 1527 1528 1529 1529 1530 1530 1530 1531 1532 1532 1532 1533 1533 1534 1535 1535 1535 1535 1535 1535 1535 1536 1536 1537 1538 1538 1538 1539 1539 1539 1539 1540 1540 1540 1540 1540 1541 1541 1541 1541 1542 1543 1544 1544 1545 1545 1545 1545 1545 1545 1545 1545 1545 1545 1545 1544 1544 1545 1545 1545 1546 1546 1547 1547 1547 1548 1548 1548 1548 1548 1548 1547 1547 1546 1545 1546 1547
1517 1518 1520 1520 1521 1522 1523 1524 1525 1526 1527 1528 1528 1528 1529 1530 1530 1531 1532 1532 1532 1532 1532 1533 1534 1534 1534 1535 1535 1534 1535 1535 1535 1535 1536 1536 1537 1537 1537 1537 1537 1537 1537 1537 1538 1539 1539 1539 1539 1539 1540 1541 1542 1542 1543 1543 1544 1544 1544 1544 1544 1544 1544 1545 1545 1545 1545 1545 1545 1545 1545 1545 1546 1546 1546 1546 1547 1547 1547 1547 1547 1545 1545 1545 1545 1545 1546
1516 1517 1519 1520 1521 1522 1523 1523 1524 1525 1526 1526 1527 1527 1528 1529 1529 1530 1531 1531 1531 1532 1532 1532 1533 1533 1533 1533 1533 1533 1534 1534 1534 1534 1534 1535 1535 1535 1535 1535 1535 1535 1535 1535 1536 1536 1537 1537 1537 1538 1538 1539 1540 1540 1541 1542 1542 1543 1543 1543 1543 1543 1544 1544 1544 1544 1544 1544 1544 1545 1545 1545 1545 1545 1545 1545 1546 1546 1546 1546 1546 1545 1545 1545 1545 1545 1545
1516 1517 1518 1520 1521 1521 1522 1523 1523 1524 1525 1525 1526 1527 1527 1528 1528 1529 1529 1530 1530 1531 1531 1531 1531 1532 1532 1532 1532 1532 1532 1533 1533 1533 1533 1533 1533 1533 1533 1533 1533 1533 1534 1534 1534 1535 1535 1535 1536 1536 1536 1537 1538 1538 1539 1540 1540 1540 1541 1542 1542 1542 1542 1543 1543 1543 1543 1543 1543 1544 1544 1544 1544 1544 1544 1544 1544 1545 1545 1545 1545 1545 1544 1544 1544 1544 1544
1514 1516 1517 1518 1519 1520 1521 1521 1522 1523 1524 1524 1525 1525 1526 1526 1527 1527 1528 1528 1528 1529 1529 1530 1530 1530 1530 1531 1531 1531 1531 1531 1531 1532 1532 1532 1532 1532 1532 1532 1531 1531 1532 1532 1533 1533 1533 1533 1534 1535 1535 1535 1536 1537 1538 1538 1539 1539 1539 1539 1540 1540 1541 1541 1541 1541 1541 1542 1542 1542 1543 1543 1543 1542 1542 1542 1543 1544 1544 1544 1544 1544 1544 1544 1543 1543 1543
1513 1514 1515 1516 1517 1518 1519 1520 1521 1522 1522 1523 1523 1524 1524 1525 1525 1526 1526 1526 1526 1527 1527 1528 1528 1528 1528 1529 1529 1529 1530 1530 1530 1530 1530 1530 1530 1530 1529 1529 1529 1529 1530 1530 1530 1531 1532 1532 1532 1533 1533 1534 1535 1536 1536 1537 1537 1537 1537 1537 1538 1538 1539 1539 1540 1540 1540 1540 1540 1541 1541 1541 1541 1542 1542 1542 1542 1543 1543 1543 1543 1543 1542 1542 1542 1541 1541
1513 1514 1514 1515 1516 1517 1518 1519 1519 1520 1521 1521 1522 1522 1523 1523 1523 1524 1524 1524 1525 1525 1525 1525 1526 1526 1526 1527 1527 1527 1527 1528 1528 1528 1528 1528 1528 1528 1527 1527 1526 1526 1527 1527 1527 1528 1529 1529 1530 1530 1530 1531 1533 1534 1534 1534 1534 1535 1536 1536 1536 1536 1537 1537 1538 1538 1538 1538 1539 1539 1539 1540 1540 1541 1541 1541 1541 1542 1542 1542 1542 1541 1541 1541 1540 1540 1540
1512 1513 1513 1514 1515 1516 1517 1517 1518 1519 1519 1519 1520 1520 1521 1521 1521 1522 1522 1523 1523 1523 1524 1524 1524 1524 1524 1525 1525 1525 1525 1525 1525 1525 1526 1526 1525 1525 1525 1524 1524 1524 1524 1524 1525 1525 1526 1527 1527 1527 1526 1527 1529 1530 1531 1531 1531 1532 1533 1534 1534 1535 1535 1536 1536 1536 1536 1537 1537 1537 1538 1538 1538 1539 1539 1539 1539 1540 1540 1540 1540 1540 1540 1539 1539 1539 1539
1511 1512 1512 1513 1514 1515 1515 1516 1516 1517 1517 1517 1518 1518 1519 1519 1520 1520 1521 1521 1521 1521 1522 1522 1522 1522 1522 1522 1522 1522 1522 1522 1522 1522 1523 1523 1522 1522 1522 1522 1521 1521 1521 1521 1522 1523 1523 1524 1524 1523 1523 1524 1525 1527 1528 1528 1528 1528 1529 1530 1531 1532 1533 1534 1534 1535 1535 1535 1536 1536 1536 1537 1537 1537 1537 1537 1538 1538 1538 1538 1539 1539 1539 1539 1539 1538 1537
1509 1510 1511 1512 1513 1513 1514 1514 1515 1515 1516 1516 1517 1517 1517 1518 1518 1518 1518 1519 1519 1519 1520 1520 1520 1520 1520 1520 1520 1520 1520 1520 1520 1520 1520 1520 1519 1519 1519 1518 1518 1518 1518 1518 1518 1519 1519 1520 1520 1519 1519 1521 1523 1525 1525 1526 1526 1526 1526 1527 1528 1529 1530 1531 1532 1533 1533 1534 1534 1535 1535 1535 1535 1536 1536 1536 1536 1536 1536 1536 1537 1538 1538 1538 1538 1537 1536
1508 1509 1510 1511 1512 1512 1513 1513 1514 1514 1515 1515 1515 1515 1515 1516 1516 1516 1517 1517 1518 1517 1517 1517 1517 1517 1517 1517 1517 1517 1517 1517 1516 1516 1516 1516 1516 1516 1516 1516 1516 1516 1516 1515 1515 1516 1516 1516 1516 1516 1516 1518 1520 1521 1522 1523 1523 1523 1524 1525 1526 1527 1528 1529 1530 1531 1531 1531 1532 1532 1533 1533 1534 1534 1534 1534 1534 1535 1535 1535 1536 1536 1536 1535 1535 1535 1534
1507 1508 1509 1510 1510 1511 1511 1512 1512 1513 1513 1513 1514 1514 1514 1514 1515 1515 1515 1515 1515 1515 1515 1515 1515 1515 1515 1515 1514 1514 1514 1514 1513 1513 1513 1514 1514 1513 1513 1512 1512 1513 1513 1512 1512 1513 1513 1513 1513 1513 1513 1513 1514 1515 1516 1518 1519 1520 1521 1522 1523 1525 1527 1529 1529 1529 1529 1529 1530 1530 1531 1531 1532 1532 1532 1532 1533 1533 1534 1534 1534 1534 1533 1533 1533 1532 1532
1506 1507 1508 1508 1509 1509 1509 1510 1510 1511 1511 1511 1512 1512 1512 1512 1513 1513 1513 1513 1513 1513 1513 1513 1513 1513 1513 1512 1512 1512 1511 1511 1511 1511 1510 1511 1510 1510 1509 1509 1509 1509 1509 1509 1508 1509 1509 1509 1509 1509 1509 1509 1510 1511 1513 1514 1515 1516 1517 1519 1521 1524 1526 1528 1529 1528 1527 1527 1528 1528 1529 1529 1530 1530 1530 1530 1531 1531 1532 1532 1532 1532 1531 1531 1531 1531 1531
1504 1505 1506 1506 1507 1507 1508 1508 1509 1509 1509 1510 1510 1510 1511 1511 1511 1511 1512 1512 1512 1512 1511 1511 1511 1511 1511 1510 1510 1509 1509 1509 1509 1508 1508 1507 1507 1506 1506 1505 1505 1505 1505 1505 1505 1505 1506 1506 1506 1506 1505 1506 1507 1509 1511 1512 1513 1514 1515 1517 1520 1522 1524 1525 1526 1526 1526 1526 1526 1526 1527 1528 1528 1528 1529 1529 1529 1530 1530 1530 1530 1530 1530 1530 1529 1529 1529
1503 1503 1504 1505 1506 1506 1506 1507 1507 1507 1508 1508 1508 1509 1509 1509 1510 1510 1510 1510 1510 1510 1509 1509 1509 1509 1509 1508 1508 1507 1507 1507 1506 1506 1505 1504 1504 1504 1503 1503 1503 1502 1502 1502 1503 1503 1504 1504 1504 1504 1504 1505 1507 1508 1510 1511 1512 1514 1514 1516 1518 1520 1521 1522 1522 1523 1523 1524 1524 1525 1526 1527 1527 1527 1527 1528 1528 1528 1528 1528 1528 1528 1528 1528 1527 1527 1527
1501 1502 1503 1504 1504 1504 1505 1506 1506 1507 1507 1507 1507 1508 1508 1508 1508 1509 1509 1509 1509 1508 1508 1508 1508 1507 1507 1507 1506 1506 1506 1505 1505 1504 1503 1503 1502 1502 1502 1501 1501 1501 1501 1501 1501 1502 1503 1503 1504 1504 1505 1506 1507 1508 1509 1511 1512 1514 1514 1515 1517 1518 1519 1519 1520 1520 1521 1522 1523 1524 1524 1525 1526 1526 1526 1526 1526 1527 1527 1526 1526 1526 1526 1526 1526 1526 1526
1500 1501 1501 1502 1503 1503 1504 1505 1505 1506 1506 1506 1506 1507 1507 1507 1507 1507 1507 1507 1507 1507 1507 1506 1506 1506 1506 1505 1505 1505 1504 1504 1504 1503 1502 1502 1502 1501 1501 1501 1501 1501 1500 1500 1500 1501 1501 1502 1503 1504 1505 1506 1507 1507 1508 1509 1511 1513 1514 1515 1516 1517 1517 1518 1518 1519 1520 1521 1522 1522 1522 1523 1524 1525 1524 1524 1525 1525 1525 1524 1524 1524 1525 1525 1525 1524 1524
1499 1499 1500 1501 1502 1503 1503 1504 1504 1505 1505 1505 1506 1506 1506 1506 1506 1506 1506 1506 1506 1506 1505 1505 1505 1505 1505 1504 1504 1504 1503 1503 1503 1502 1502 1502 1501 1501 1501 1501 1501 1500 1500 1501 1501 1501 1501 1502 1502 1503 1504 1505 1506 1506 1507 1508 1509 1511 1513 1514 1514 1515 1515 1516 1517 1518 1519 1520 1520 1521 1521 1521 1522 1523 1522 1522 1522 1523 1522 1522 1523 1523 1524 1524 1523 1523 1523
1498 1499 1500 1501 1502 1502 1502 1503 1503 1504 1504 1505 1506 1506 1505 1505 1505 1505 1505 1505 1505 1505 1504 1504 1504 1504 1504 1504 1503 1503 1503 1502 1502 1501 1501 1501 1500 1500 1500 1500 1500 1501 1501 1501 1501 1501 1501 1502 1502 1503 1504 1505 1505 1506 1507 1508 1509 1510 1511 1512 1513 1514 1515 1515 1516 1516 1517 1518 1518 1519 1519 1520 1521 1521 1520 1520 1521 1521 1521 1521 1521 1522 1523 1523 1522 1522 1522
1497 1498 1499 1500 1501 1501 1502 1502 1503 1503 1504 1505 1505 1505 1505 1504 1504 1504 1504 1504 1504 1504 1504 1503 1504 1503 1503 1503 1503 1502 1502 1502 1501 1500 1500 1500 1500 1500 1500 1500 1500 1500 1501 1501 1501 1501 1501 1501 1502 1502 1503 1504 1505 1506 1507 1508 1509 1510 1510 1511 1512 1513 1514 1514 1514 1515 1516 1516 1517 1517 1518 1519 1519 1519 1518 1518 1519 1520 1520 1520 1520 1521 1521 1522 1521 1521 1521
1497 1498 1499 1499 1500 1501 1501 1502 1502 1503 1503 1504 1504 1504 1504 1504 1504 1504 1504 1504 1503 1503 1503 1503 1503 1503 1503 1503 1502 1502 1502 1501 1501 1500 1500 1499 1499 1499 1499 1500 1500 1500 1500 1501 1501 1501 1501 1501 1501 1502 1502 1503 1504 1505 1507 1508 1508 1509 1510 1511 1511 1512 1513 1513 1513 1513 1514 1515 1515 1516 1517 1517 1518 1517 1517 1517 1518 1519 1519 1519 1519 1519 1520 1521 1520 1520 1520
1496 1497 1498 1499 1499 1500 1501 1501 1502 1502 1502 1503 1503 1503 1503 1503 1503 1503 1503 1503 1503 1503 1503 1502 1503 1503 1502 1502 1502 1502 1501 1501 1501 1500 1500 1499 1499 1499 1498 1499 1499 1500 1500 1500 1500 1500 1501 1501 1501 1501 1501 1502 1503 1505 1506 1507 1507 1508 1509 1510 1510 1510 1511 1512 1512 1513 1513 1514 1514 1515 1516 1516 1516 1516 1516 1517 1517 1518 1518 1518 1518 1519 1519 1519 1519 1519 1520
1495 1496 1497 1498 1499 1499 1500 1500 1501 1501 1501 1501 1502 1502 1502 1502 1502 1502 1502 1503 1503 1503 1502 1502 1503 1503 1502 1502 1502 1501 1501 1501 1501 1500 1500 1500 1499 1498 1498 1498 1499 1500 1500 1500 1500 1500 1500 1501 1501 1501 1502 1503 1504 1505 1506 1507 1507 1508 1508 1509 1509 1509 1510 1510 1511 1512 1513 1513 1513 1513 1514 1515 1515 1515 1516 1516 1517 1517 1517 1518 1517 1518 1518 1518 1518 1519 1519
1495 1496 1497 1497 1498 1498 1499 1499 1500 1500 1500 1501 1501 1501 1502 1502 1502 1501 1502 1502 1502 1502 1502 1502 1502 1502 1502 1502 1501 1501 1501 1501 1500 1500 1500 1500 1499 1499 1499 1499 1499 1500 1500 1500 1500 1499 1499 1500 1501 1502 1503 1504 1504 1505 1506 1507 1507 1507 1508 1508 1508 1508 1509 1509 1510 1511 1511 1512 1512 1512 1513 1514 1514 1515 1515 1515 1516 1516 1517 1517 1517 1517 1517 1518 1518 1518 1518